This is the latest recevied weather packets stored in our database for station/object OK1FET-5. If no packets are shown the sender has not sent any weather packets the latest 10 day(s).
| Time | Temp. | Humidity | Pressure | Rain* | Wind** | Luminosity | Snow |
|---|---|---|---|---|---|---|---|
| 1777881811 | 21.11° C | 39% | 1015.1 hPa | - | - | - | - |
| 1777881516 | 21.11° C | 39% | 1015.1 hPa | - | - | - | - |
| 1777881221 | 21.67° C | 39% | 1015 hPa | - | - | - | - |
| 1777880925 | 21.67° C | 39% | 1015 hPa | - | - | - | - |
| 1777880630 | 21.67° C | 39% | 1015 hPa | - | - | - | - |
| 1777880040 | 20.56° C | 40% | 1015 hPa | - | - | - | - |
| 1777879745 | 19.44° C | 40% | 1015.1 hPa | - | - | - | - |
| 1777879450 | 19.44° C | 41% | 1015.1 hPa | - | - | - | - |
| 1777879155 | 19.44° C | 41% | 1015.1 hPa | - | - | - | - |
| 1777878860 | 18.89° C | 41% | 1015 hPa | - | - | - | - |
| 1777878565 | 18.89° C | 41% | 1015 hPa | - | - | - | - |
| 1777878270 | 18.89° C | 40% | 1014.9 hPa | - | - | - | - |
| 1777877975 | 18.89° C | 40% | 1015.1 hPa | - | - | - | - |
| 1777877681 | 18.89° C | 40% | 1015.1 hPa | - | - | - | - |
| 1777877386 | 18.33° C | 40% | 1015 hPa | - | - | - | - |
| 1777877091 | 18.33° C | 40% | 1014.9 hPa | - | - | - | - |
| 1777876796 | 18.33° C | 40% | 1014.9 hPa | - | - | - | - |
| 1777876501 | 18.33° C | 40% | 1014.9 hPa | - | - | - | - |
| 1777876206 | 18.33° C | 39% | 1014.9 hPa | - | - | - | - |
| 1777875911 | 18.89° C | 38% | 1014.9 hPa | - | - | - | - |
| 1777875617 | 18.33° C | 39% | 1015 hPa | - | - | - | - |
| 1777875322 | 17.22° C | 41% | 1014.8 hPa | - | - | - | - |
| 1777875027 | 16.11° C | 42% | 1014.7 hPa | - | - | - | - |
| 1777874733 | 16.11° C | 42% | 1014.8 hPa | - | - | - | - |
| 1777874438 | 16.11° C | 43% | 1014.8 hPa | - | - | - | - |
* Rain since midnight (hover to see other rain measurements)
** Current wind speed in m/s (hover to see current wind gust speed)